GW5875 Weather Reports


Display with metric or nautical units.
time (UTC)temp
F
wind
direction
speed
MPH
gust
MPH
rain 1hr
in
rain 24hr
in
rain mn
in
humidity
%
barometer
mb
20260510033542 61 146 0.0 0.0 0.00 0.00 0.00 93 1011.7
20260510033041 61 146 0.0 0.0 0.00 0.00 0.00 93 1011.6
20260510032537 61 146 0.0 0.0 0.00 0.00 0.00 93 1011.6
20260510032032 61 146 0.0 0.0 0.00 0.00 0.00 93 1011.6
20260510031527 61 146 0.0 0.0 0.00 0.00 0.00 92 1011.6
20260510031023 61 146 0.0 0.0 0.00 0.00 0.00 92 1011.4
20260510030519 61 146 0.0 0.0 0.00 0.00 0.00 92 1011.3
20260510030017 61 145 0.0 0.0 0.00 0.00 0.00 91 1011.3
20260510025513 62 145 0.0 0.0 0.00 0.00 0.00 90 1011.4
20260510025011 62 145 0.0 0.0 0.00 0.00 0.00 89 1011.2
20260510024508 63 146 0.0 0.0 0.00 0.00 0.00 89 1011.1
20260510024004 63 146 0.0 0.0 0.00 0.00 0.00 88 1011.0
20260510023500 63 146 0.0 0.0 0.00 0.00 0.00 87 1011.1
20260510022957 63 146 0.0 0.0 0.00 0.00 0.00 87 1010.8
20260510022456 64 146 0.0 0.0 0.00 0.00 0.00 86 1010.6
20260510021955 64 145 0.0 0.0 0.00 0.00 0.00 85 1010.8
20260510021453 64 146 0.0 0.0 0.00 0.00 0.00 85 1010.8
20260510020950 65 145 0.0 0.0 0.00 0.00 0.00 84 1010.7
20260510020444 65 146 0.0 0.0 0.00 0.00 0.00 83 1010.8
20260510015940 65 145 0.0 0.0 0.00 0.00 0.00 82 1010.2
20260510015436 65 145 0.0 0.0 0.00 0.00 0.00 82 1010.6
20260510014931 66 146 0.0 0.0 0.00 0.00 0.00 82 1010.3
20260510014429 66 146 0.0 0.0 0.00 0.00 0.00 80 1010.3
20260510013926 67 145 0.0 0.0 0.00 0.00 0.00 78 1010.3
20260510013420 67 145 0.0 0.0 0.00 0.00 0.00 78 1010.2
20260510012916 68 145 0.0 0.0 0.00 0.00 0.00 77 1010.2
20260510012411 68 145 0.0 0.0 0.00 0.00 0.00 76 1009.9
20260510011906 69 145 0.0 0.0 0.00 0.00 0.00 75 1009.9
20260510011401 69 145 0.0 0.0 0.00 0.00 0.00 74 1010.1
20260510010858 70 146 0.0 0.0 0.00 0.00 0.00 71 1010.1
20260510010355 71 146 0.0 0.0 0.00 0.00 0.00 70 1009.9
20260510005852 72 146 0.0 0.0 0.00 0.00 0.00 68 1010.0
20260510005348 72 145 0.0 0.0 0.00 0.00 0.00 66 1010.0
20260510004846 73 145 0.0 0.0 0.00 0.00 0.00 64 1009.7
20260510004343 74 145 0.0 0.0 0.00 0.00 0.00 62 1009.6
20260510003841 75 148 0.0 0.0 0.00 0.00 0.00 60 1009.6
20260510003338 76 148 0.0 0.0 0.00 0.00 0.00 58 1009.7
20260510002836 77 147 0.0 0.0 0.00 0.00 0.00 57 1009.5
20260510002333 78 148 0.0 0.0 0.00 0.00 0.00 55 1009.6
20260510001830 78 147 0.0 0.0 0.00 0.00 0.00 53 1009.5
20260510001328 78 150 0.0 0.0 0.00 0.00 0.00 51 1009.5
20260510000824 79 137 1.0 1.0 0.00 0.00 0.00 51 1009.4
20260510000322 79 128 1.0 1.0 0.00 0.00 0.00 50 1009.5
20260509235819 79 149 0.0 0.0 0.00 0.00 0.00 51 1009.3
20260509235315 80 140 0.0 0.0 0.00 0.00 0.00 50 1009.3
20260509234811 80 134 1.0 1.0 0.00 0.00 0.00 50 1009.4
20260509234308 80 116 2.0 3.0 0.00 0.00 0.00 50 1009.4
20260509233806 80 144 1.0 1.0 0.00 0.00 0.00 51 1009.4
20260509233303 81 135 2.0 3.0 0.00 0.00 0.00 49 1009.2
20260509232759 81 157 0.0 1.0 0.00 0.00 0.00 50 1009.3
20260509232257 80 134 1.0 1.0 0.00 0.00 0.00 48 1009.5
20260509231753 80 70 5.0 6.0 0.00 0.00 0.00 49 1009.3
20260509231250 81 88 3.0 4.0 0.00 0.00 0.00 49 1009.5
20260509230748 80 140 3.0 4.0 0.00 0.00 0.00 49 1009.5
20260509230244 80 147 0.0 0.0 0.00 0.00 0.00 51 1009.2
20260509225739 80 152 0.0 0.0 0.00 0.00 0.00 54 1009.2
20260509225236 80 152 1.0 3.0 0.00 0.00 0.00 52 1009.1
20260509224731 81 127 3.0 4.0 0.00 0.00 0.00 49 1009.1
20260509224229 80 65 2.0 3.0 0.00 0.00 0.00 52 1009.2
20260509223725 80 123 1.0 1.0 0.00 0.00 0.00 52 1009.1
20260509223222 81 51 7.0 8.0 0.00 0.00 0.00 49 1009.1
20260509222719 81 65 4.0 5.0 0.00 0.00 0.00 50 1009.2
20260509222214 82 41 2.0 5.0 0.00 0.00 0.00 50 1009.0
20260509221711 83 138 1.0 1.0 0.00 0.00 0.00 50 1009.0
20260509221207 83 144 2.0 3.0 0.00 0.00 0.00 48 1008.8
20260509220703 84 143 1.0 1.0 0.00 0.00 0.00 48 1008.9
20260509220159 84 115 1.0 1.0 0.00 0.00 0.00 47 1008.8
20260509215655 84 161 0.0 1.0 0.00 0.00 0.00 50 1008.8
20260509215152 82 144 2.0 3.0 0.00 0.00 0.00 50 1008.8
20260509214649 82 78 3.0 4.0 0.00 0.00 0.00 49 1008.9
20260509214146 82 138 2.0 3.0 0.00 0.00 0.00 51 1008.8
20260509213643 81 145 2.0 3.0 0.00 0.00 0.00 53 1008.6
20260509213138 80 166 1.0 1.0 0.00 0.00 0.00 57 1008.9
20260509212636 80 135 0.0 1.0 0.00 0.00 0.00 58 1008.7
20260509212133 80 128 0.0 1.0 0.00 0.00 0.00 54 1009.1
20260509211629 81 79 2.0 3.0 0.00 0.00 0.00 53 1009.1
20260509211126 81 129 2.0 3.0 0.00 0.00 0.00 53 1009.0
20260509210623 83 113 2.0 3.0 0.00 0.00 0.00 50 1009.0
20260509210120 84 116 4.0 5.0 0.00 0.00 0.00 44 1009.0
20260509205614 84 82 4.0 5.0 0.00 0.00 0.00 45 1009.1
20260509205109 84 139 0.0 0.0 0.00 0.00 0.00 47 1009.1
20260509204605 83 156 0.0 0.0 0.00 0.00 0.00 53 1009.0
20260509204102 83 143 1.0 1.0 0.00 0.00 0.00 44 1008.9
20260509203558 83 103 4.0 5.0 0.00 0.00 0.00 37 1009.1
20260509203057 84 137 6.0 6.0 0.00 0.00 0.00 35 1009.3
20260509202556 84 155 3.0 4.0 0.00 0.00 0.00 38 1009.4
20260509202052 84 106 4.0 6.0 0.00 0.00 0.00 38 1009.6
20260509201547 84 107 2.0 3.0 0.00 0.00 0.00 40 1009.8
20260509201045 83 170 1.0 1.0 0.00 0.00 0.00 40 1009.7
20260509200544 82 119 1.0 1.0 0.00 0.00 0.00 43 1009.9
20260509200042 84 74 6.0 6.0 0.00 0.00 0.00 37 1010.0
20260509195537 84 168 1.0 3.0 0.00 0.00 0.00 37 1009.7
20260509195037 84 129 1.0 1.0 0.00 0.00 0.00 38 1009.8
20260509194532 82 157 0.0 0.0 0.00 0.00 0.00 43 1009.8
20260509194030 82 87 3.0 4.0 0.00 0.00 0.00 39 1009.7
20260509193530 82 155 2.0 3.0 0.00 0.00 0.00 37 1009.8
20260509193027 82 105 3.0 4.0 0.00 0.00 0.00 43 1009.9
20260509192524 83 103 6.0 6.0 0.00 0.00 0.00 40 1009.7
20260509192019 83 290 4.0 4.0 0.00 0.00 0.00 37 1009.7
20260509191513 83 94 2.0 3.0 0.00 0.00 0.00 39 1010.0
20260509191009 83 283 2.0 3.0 0.00 0.00 0.00 44 1009.8
20260509190506 82 144 1.0 3.0 0.00 0.00 0.00 46 1009.7
20260509190005 82 154 0.0 1.0 0.00 0.00 0.00 40 1009.8
20260509185501 81 123 0.0 1.0 0.00 0.00 0.00 46 1010.2
20260509184958 81 161 3.0 4.0 0.00 0.00 0.00 43 1009.9
20260509184456 82 70 5.0 6.0 0.00 0.00 0.00 44 1010.1
20260509183952 81 140 1.0 1.0 0.00 0.00 0.00 45 1010.1
20260509183452 82 147 0.0 1.0 0.00 0.00 0.00 44 1010.1
20260509182949 81 250 3.0 3.0 0.00 0.00 0.00 43 1010.0
20260509182445 81 126 1.0 1.0 0.00 0.00 0.00 44 1010.1
20260509181943 81 136 0.0 1.0 0.00 0.00 0.00 48 1010.0
20260509181441 82 116 3.0 5.0 0.00 0.00 0.00 45 1010.3
20260509180939 82 140 3.0 4.0 0.00 0.00 0.00 48 1010.3
20260509180434 81 194 1.0 1.0 0.00 0.00 0.00 56 1010.3
20260509175931 80 193 4.0 5.0 0.00 0.00 0.00 52 1010.4
20260509175427 79 183 2.0 3.0 0.00 0.00 0.00 50 1010.2
20260509174923 80 75 3.0 5.0 0.00 0.00 0.00 49 1010.4
20260509174419 79 123 2.0 4.0 0.00 0.00 0.00 52 1010.3
20260509173916 80 96 3.0 4.0 0.00 0.00 0.00 52 1010.4
20260509173415 80 145 1.0 1.0 0.00 0.00 0.00 55 1010.6
20260509172912 80 169 2.0 3.0 0.00 0.00 0.00 60 1010.3
20260509172408 80 106 2.0 3.0 0.00 0.00 0.00 54 1010.4
20260509171904 80 128 2.0 3.0 0.00 0.00 0.00 55 1010.3
20260509171401 80 173 1.0 3.0 0.00 0.00 0.00 59 1010.7
20260509170857 79 154 0.0 1.0 0.00 0.00 0.00 59 1010.6
20260509170353 78 133 0.0 0.0 0.00 0.00 0.00 57 1010.7
20260509165848 78 274 3.0 4.0 0.00 0.00 0.00 61 1010.6
20260509165343 78 167 2.0 3.0 0.00 0.00 0.00 60 1010.4
20260509164838 78 287 6.0 6.0 0.00 0.00 0.00 58 1010.4
20260509164335 78 178 1.0 1.0 0.00 0.00 0.00 60 1010.4
20260509163831 78 171 2.0 4.0 0.00 0.00 0.00 61 1010.3
20260509163328 78 159 0.0 0.0 0.00 0.00 0.00 63 1010.3
20260509162828 77 289 4.0 6.0 0.00 0.00 0.00 61 1010.4
20260509162326 77 141 1.0 1.0 0.00 0.00 0.00 60 1010.3
20260509161822 77 165 0.0 0.0 0.00 0.00 0.00 62 1010.1
20260509161319 77 160 2.0 3.0 0.00 0.00 0.00 64 1010.4
20260509160814 77 130 0.0 0.0 0.00 0.00 0.00 64 1010.4
20260509160310 76 127 1.0 1.0 0.00 0.00 0.00 65 1010.2
20260509155806 76 162 0.0 0.0 0.00 0.00 0.00 65 1010.3
20260509155306 75 172 2.0 3.0 0.00 0.00 0.00 67 1010.3
20260509154759 75 208 2.0 3.0 0.00 0.00 0.00 68 1010.3
20260509154256 75 234 3.0 5.0 0.00 0.00 0.00 67 1010.3
20260509153753 75 143 2.0 3.0 0.00 0.00 0.00 67 1010.2
20260509153248 75 287 4.0 4.0 0.00 0.00 0.00 66 1010.1
20260509152746 74 247 4.0 4.0 0.00 0.00 0.00 67 1010.2
20260509152242 74 155 2.0 3.0 0.00 0.00 0.00 70 1010.2
20260509151739 75 151 1.0 1.0 0.00 0.00 0.00 67 1010.2
20260509151235 74 145 1.0 1.0 0.00 0.00 0.00 69 1010.1
20260509150734 73 226 3.0 4.0 0.00 0.00 0.00 71 1010.3
20260509150232 73 149 0.0 1.0 0.00 0.00 0.00 70 1010.7
20260509145728 74 234 2.0 3.0 0.00 0.00 0.00 71 1010.3
20260509145222 74 162 0.0 0.0 0.00 0.00 0.00 69 1010.4
20260509144719 73 164 0.0 0.0 0.00 0.00 0.00 72 1010.2
20260509144216 72 151 0.0 0.0 0.00 0.00 0.00 71 1010.6
20260509143714 72 169 0.0 0.0 0.00 0.00 0.00 74 1010.3
20260509143211 72 133 1.0 1.0 0.00 0.00 0.00 73 1010.7
20260509142706 71 160 0.0 0.0 0.00 0.00 0.00 73 1010.6
20260509142203 71 232 3.0 3.0 0.00 0.00 0.00 73 1010.9
20260509141659 71 167 1.0 1.0 0.00 0.00 0.00 74 1010.6
20260509141155 70 164 1.0 1.0 0.00 0.00 0.00 73 1010.7
20260509140652 70 179 2.0 3.0 0.00 0.00 0.00 73 1010.8
20260509140150 69 157 0.0 0.0 0.00 0.00 0.00 76 1010.9
20260509135647 69 163 1.0 1.0 0.00 0.00 0.00 77 1011.0
20260509135146 69 160 0.0 0.0 0.00 0.00 0.00 78 1010.7
20260509134641 69 160 0.0 0.0 0.00 0.00 0.00 79 1010.8
20260509134139 69 167 1.0 1.0 0.00 0.00 0.00 78 1010.8
20260509133636 67 159 0.0 0.0 0.00 0.00 0.00 81 1010.6
20260509133133 66 167 1.0 1.0 0.00 0.00 0.00 82 1010.7
20260509132631 66 156 0.0 0.0 0.00 0.00 0.00 83 1011.0
20260509132130 66 165 1.0 1.0 0.00 0.00 0.00 83 1010.7
20260509131625 66 177 0.0 1.0 0.00 0.00 0.00 82 1010.7
20260509131123 65 165 0.0 0.0 0.00 0.00 0.00 82 1010.8
20260509130618 65 162 0.0 0.0 0.00 0.00 0.00 85 1010.8
20260509130115 64 163 0.0 0.0 0.00 0.00 0.00 86 1010.7
20260509125611 64 162 0.0 0.0 0.00 0.00 0.00 86 1010.8
20260509125108 63 163 0.0 0.0 0.00 0.00 0.00 89 1010.6
20260509124604 62 154 0.0 0.0 0.00 0.00 0.00 94 1010.6
20260509124102 60 147 0.0 0.0 0.00 0.00 0.00 97 1010.4
20260509123600 59 160 0.0 0.0 0.00 0.00 0.00 97 1010.6
20260509123056 59 160 0.0 0.0 0.00 0.00 0.00 97 1010.3
20260509122552 58 160 0.0 0.0 0.00 0.00 0.00 97 1010.2
20260509122050 57 160 0.0 0.0 0.00 0.00 0.00 98 1010.2
20260509121546 57 160 0.0 0.0 0.00 0.00 0.00 98 1010.2
20260509121048 56 168 0.0 0.0 0.00 0.00 0.00 98 1010.0
20260509120542 55 147 0.0 0.0 0.00 0.00 0.00 98 1010.2
20260509120040 55 147 0.0 0.0 0.00 0.00 0.00 98 1010.1
20260509115536 54 147 0.0 0.0 0.00 0.00 0.00 98 1009.8
20260509115034 54 147 0.0 0.0 0.00 0.00 0.00 98 1009.8
20260509114532 54 147 0.0 0.0 0.00 0.00 0.00 98 1009.6
20260509114031 54 147 0.0 0.0 0.00 0.00 0.00 98 1009.9
20260509113528 54 147 0.0 0.0 0.00 0.00 0.00 98 1009.6
20260509113026 54 147 0.0 0.0 0.00 0.00 0.00 98 1009.7
20260509112522 54 147 0.0 0.0 0.00 0.00 0.00 98 1009.6
20260509112019 54 147 0.0 0.0 0.00 0.00 0.00 98 1009.6
20260509111517 54 147 0.0 0.0 0.00 0.00 0.00 98 1009.3
20260509111014 54 147 0.0 0.0 0.00 0.00 0.00 98 1009.1
20260509110510 54 147 0.0 0.0 0.00 0.00 0.00 98 1009.1
20260509110007 54 147 0.0 0.0 0.00 0.00 0.00 98 1009.3
20260509105506 54 147 0.0 0.0 0.00 0.00 0.00 98 1009.0
20260509105003 54 147 0.0 0.0 0.00 0.00 0.00 98 1009.0
20260509104459 54 147 0.0 0.0 0.00 0.00 0.00 97 1008.9
20260509103957 54 147 0.0 0.0 0.00 0.00 0.00 97 1008.8
20260509103454 54 147 0.0 0.0 0.00 0.00 0.00 97 1008.8
20260509102952 54 146 0.0 0.0 0.00 0.00 0.00 97 1008.8
20260509102449 54 147 0.0 0.0 0.00 0.00 0.00 97 1008.9
20260509101945 54 148 0.0 0.0 0.00 0.00 0.00 97 1008.7
20260509101442 55 148 0.0 0.0 0.00 0.00 0.00 97 1008.6
20260509100939 55 148 0.0 0.0 0.00 0.00 0.00 97 1008.7
20260509100436 55 139 0.0 0.0 0.00 0.00 0.00 97 1008.7
20260509095933 55 138 0.0 0.0 0.00 0.00 0.00 97 1008.4
20260509095430 55 138 0.0 0.0 0.00 0.00 0.00 97 1008.6
20260509094927 55 138 0.0 0.0 0.00 0.00 0.00 97 1008.5
20260509094423 55 138 0.0 0.0 0.00 0.00 0.00 97 1008.5
20260509093921 55 138 0.0 0.0 0.00 0.00 0.00 97 1008.7
20260509093418 55 136 0.0 0.0 0.00 0.00 0.00 97 1009.0
20260509092917 55 144 0.0 0.0 0.00 0.00 0.00 96 1009.1
20260509092414 56 148 0.0 0.0 0.00 0.00 0.00 96 1009.0
20260509091913 56 148 0.0 0.0 0.00 0.00 0.00 96 1009.1
20260509091409 55 140 0.0 0.0 0.00 0.00 0.00 96 1008.9
20260509090907 55 140 0.0 0.0 0.00 0.00 0.00 96 1008.9
20260509090403 55 132 0.0 0.0 0.00 0.00 0.00 96 1009.0
20260509085901 55 149 0.0 0.0 0.00 0.00 0.00 96 1008.8
20260509085358 55 157 0.0 0.0 0.00 0.00 0.00 96 1008.6
20260509084854 56 157 0.0 0.0 0.00 0.00 0.00 96 1008.5
20260509084351 56 157 0.0 0.0 0.00 0.00 0.00 95 1008.5
20260509083849 56 157 0.0 0.0 0.00 0.00 0.00 95 1008.5
20260509083346 56 155 0.0 0.0 0.00 0.00 0.00 95 1008.6
20260509082842 56 151 0.0 0.0 0.00 0.00 0.00 95 1008.5
20260509082339 56 154 0.0 0.0 0.00 0.00 0.00 95 1008.7
20260509081837 56 156 0.0 0.0 0.00 0.00 0.00 94 1008.6
20260509081333 57 148 0.0 0.0 0.00 0.00 0.00 94 1008.9
20260509080831 57 146 0.0 0.0 0.00 0.00 0.00 94 1009.0
20260509080329 57 134 0.0 0.0 0.00 0.00 0.00 94 1009.0
20260509075827 57 142 0.0 0.0 0.00 0.00 0.00 93 1009.1
20260509075324 57 158 0.0 0.0 0.00 0.00 0.00 93 1008.8
20260509074821 57 165 0.0 0.0 0.00 0.00 0.00 92 1009.0
20260509074319 57 163 0.0 0.0 0.00 0.00 0.00 91 1008.8
20260509073814 58 162 1.0 1.0 0.00 0.00 0.00 91 1008.9
20260509073311 58 165 0.0 0.0 0.00 0.00 0.00 90 1008.8
20260509072808 59 153 0.0 0.0 0.00 0.00 0.00 89 1008.8
20260509072306 59 147 0.0 0.0 0.00 0.00 0.00 88 1008.7
20260509071801 60 131 1.0 1.0 0.00 0.00 0.00 86 1008.8
20260509071258 60 146 0.0 0.0 0.00 0.00 0.00 85 1008.7
20260509070755 62 152 0.0 0.0 0.00 0.00 0.00 82 1008.9
20260509070251 62 182 1.0 1.0 0.00 0.00 0.00 83 1008.7
20260509065748 61 151 1.0 1.0 0.00 0.00 0.00 83 1009.0
20260509065244 62 153 0.0 0.0 0.00 0.00 0.00 82 1008.6
20260509064741 61 182 1.0 1.0 0.00 0.00 0.00 83 1008.7
20260509064238 61 151 0.0 0.0 0.00 0.00 0.00 83 1008.7
20260509063736 62 147 0.0 0.0 0.00 0.00 0.00 82 1008.7
20260509063232 63 138 1.0 1.0 0.00 0.00 0.00 80 1008.3
20260509062729 63 170 0.0 1.0 0.00 0.00 0.00 79 1008.0
20260509062226 63 146 0.0 0.0 0.00 0.00 0.00 79 1008.3
20260509061723 64 183 2.0 3.0 0.00 0.00 0.00 78 1008.5
20260509061221 64 151 0.0 0.0 0.00 0.00 0.00 76 1008.3
20260509060718 64 195 2.0 3.0 0.00 0.00 0.00 77 1008.0
20260509060214 64 174 0.0 0.0 0.00 0.00 0.00 78 1008.1
20260509055710 64 286 3.0 4.0 0.00 0.00 0.00 78 1007.8
20260509055206 63 234 2.0 3.0 0.00 0.00 0.00 79 1008.1
20260509054703 63 163 0.0 1.0 0.00 0.00 0.00 80 1008.4
20260509054200 62 143 1.0 3.0 0.00 0.00 0.00 81 1008.4
20260509053658 62 90 1.0 3.0 0.00 0.00 0.00 84 1008.1
20260509053155 60 148 0.0 1.0 0.00 0.00 0.00 88 1008.3
20260509052653 59 141 0.0 1.0 0.00 0.00 0.00 91 1008.4
20260509052150 59 166 0.0 0.0 0.00 0.00 0.00 92 1008.6
20260509051648 58 149 0.0 0.0 0.00 0.00 0.00 92 1009.1
20260509051145 58 149 0.0 0.0 0.00 0.00 0.00 92 1009.4
20260509050642 58 151 0.0 0.0 0.00 0.00 0.00 92 1009.7
20260509050138 58 139 0.0 0.0 0.00 0.00 0.00 92 1009.5
20260509045636 58 135 0.0 0.0 0.00 0.00 0.00 91 1009.9
20260509045133 58 151 0.0 0.0 0.00 0.00 0.00 92 1010.0
20260509044630 58 152 0.0 0.0 0.00 0.00 0.00 92 1010.4
20260509044127 57 149 0.0 0.0 0.00 0.00 0.00 93 1010.8
20260509043623 57 152 0.0 0.0 0.00 0.00 0.00 93 1010.9
20260509043119 57 153 0.0 0.0 0.00 0.00 0.00 93 1011.0
20260509042616 57 156 0.0 0.0 0.00 0.00 0.00 93 1011.2
20260509042112 57 189 0.0 0.0 0.00 0.00 0.00 93 1011.0
20260509041609 57 187 0.0 0.0 0.00 0.00 0.00 92 1010.8
20260509041106 57 145 0.0 0.0 0.00 0.00 0.00 92 1010.6
20260509040605 57 145 0.0 0.0 0.00 0.00 0.00 92 1010.6
20260509040101 57 142 0.0 0.0 0.00 0.00 0.00 91 1010.9
20260509035558 57 146 0.0 0.0 0.00 0.00 0.00 91 1010.9
20260509035054 57 146 0.0 0.0 0.00 0.00 0.00 91 1011.4
20260509034553 57 145 0.0 0.0 0.00 0.00 0.00 91 1011.3
20260509034049 57 144 0.0 0.0 0.00 0.00 0.00 91 1011.0